Location: Theydon Bois
(51.6750°N, 0.1050°E)
Time: 04:04:38
(UTC+01:00)

GP-B - Visible Passes

Search period start: 21 June 2018 00:00
Search period end: 01 July 2018 00:00
Orbit: 632 x 635 km, 89.8° (Epoch: 20 June)

Date Brightness Start Highest point End Pass type
(mag) Time Alt. Az. Time Alt. Az. Time Alt. Az.
21 Jun 4.8 01:37:36 10° NNE 01:41:22 26° E 01:45:07 10° SE visible
21 Jun 3.8 03:14:40 10° NNW 03:18:50 40° W 03:22:43 11° SSW visible
22 Jun 4.0 01:59:02 10° NNE 02:03:18 44° E 02:06:58 14° SSE visible
22 Jun 4.6 03:36:49 10° NNW 03:40:24 24° WNW 03:43:57 10° SW visible
23 Jun 5.7 00:45:55 10° ENE 00:47:00 11° ENE 00:48:05 10° E visible
23 Jun 3.2 02:20:40 10° N 02:25:09 77° E 02:28:40 16° S visible
24 Jun 5.3 01:06:04 10° NNE 01:09:08 18° ENE 01:12:12 10° ESE visible
24 Jun 3.3 02:42:29 10° N 02:46:53 61° W 02:50:22 16° SSW visible
25 Jun 4.6 01:27:14 10° NNE 01:31:09 29° E 01:34:37 12° SE visible
25 Jun 4.0 03:04:27 10° NNW 03:08:32 35° W 03:12:04 13° SW visible
26 Jun 3.7 01:48:43 10° N 01:53:04 50° E 01:56:20 17° SSE visible
26 Jun 4.7 03:26:41 10° NNW 03:30:04 22° WNW 03:33:27 10° WSW visible
27 Jun 5.6 00:35:02 10° NE 00:36:50 12° ENE 00:38:38 10° E visible
27 Jun 3.1 02:10:24 10° N 02:14:53 87° E 02:18:02 19° S visible
27 Jun 5.3 03:49:24 10° NW 03:51:31 13° WNW 03:53:38 10° W visible
28 Jun 5.1 00:55:37 10° NNE 00:58:56 20° ENE 01:02:14 10° SE visible
28 Jun 3.4 02:32:14 10° N 02:36:36 54° W 02:39:45 18° SSW visible
29 Jun 4.4 01:16:53 10° NNE 01:20:56 33° E 01:24:01 15° SE visible
29 Jun 4.2 02:54:17 10° NNW 02:58:13 32° WNW 03:01:28 14° SW visible
30 Jun 3.5 01:38:25 10° N 01:42:49 57° E 01:45:44 20° SSE visible
30 Jun 4.9 03:16:34 10° NNW 03:19:45 19° WNW 03:22:54 10° WSW visible
